RH
56 81 85 95 78 63 54 43 42 40 39 45 49 50 51 51 48 47 46 40 36 31 27 26 26 27 20 22 27 32 36 27 23 25 22 23 22 20 14 7 5 3 3
64 84 90 90 70 62 52 44 41 41 51 57 57 56 55 52 48 46 41 36 33 30 28 29 27 20 26 30 37 34 27 26 19 14 20 22 20 10 6 5 4 3 2
68 89 100 77 62 54 47 47 46 50 61 60 57 58 56 53 49 42 37 33 32 29 32 24 21 28 34 36 30 31 29 23 18 16 19 12 8 6 5 4 3 2 2
81 100 97 72 58 49 47 48 52 62 62 59 59 58 57 53 45 38 33 32 30 32 22 24 29 34 31 35 37 30 22 18 19 14 8 7 6 5 4 3 3 3 2
100 100 89 68 58 52 52 55 63 63 60 61 60 63 61 48 38 36 31 33 27 23 28 29 34 33 41 38 29 22 18 18 10 8 7 6 4 4 4 3 3 3 2
100 96 80 65 58 59 61 64 62 61 61 64 69 64 46 42 35 32 32 25 26 28 32 33 38 43 42 35 26 21 18 8 7 6 5 4 4 4 3 3 3 2 2
100 96 86 77 73 71 67 64 62 60 72 73 60 50 43 35 35 27 25 29 28 33 34 43 45 44 36 24 22 17 10 6 6 5 5 4 4 4 3 2 2 3 3
100 98 91 86 78 72 65 61 69 76 72 59 51 42 39 31 26 28 28 33 32 40 44 45 45 40 28 19 13 10 8 7 5 5 5 4 4 3 3 3 3 2 2
100 94 89 83 78 76 78 80 73 66 58 49 46 36 28 25 29 33 35 35 44 46 49 51 42 28 17 11 9 7 6 5 5 5 4 4 3 4 4 4 3 3 2
100 97 93 90 88 81 71 70 67 53 52 45 32 25 28 30 39 35 38 44 46 50 50 40 25 14 11 9 7 6 5 6 5 4 3 4 4 5 5 6 7 6 5
100 99 93 83 72 72 74 59 55 55 34 28 30 30 37 41 36 42 44 45 45 46 39 23 14 10 9 7 6 5 6 5 4 4 4 4 4 5 6 8 8 9 9
93 81 78 79 72 62 61 54 37 31 31 33 33 49 40 36 42 45 46 45 46 39 24 14 9 9 7 5 6 6 5 4 4 4 4 4 6 8 9 10 11 11 11
81 77 70 65 70 56 38 34 35 38 34 38 54 39 42 48 51 49 46 51 44 27 16 10 8 7 5 6 6 5 4 4 5 5 5 7 8 10 10 12 13 12 12
71 74 79 54 41 38 40 42 34 37 57 51 41 44 51 52 50 47 53 47 30 18 11 9 6 5 6 6 5 4 5 6 5 6 7 9 11 12 13 14 14 15 12
79 54 44 44 48 46 38 35 51 59 48 44 46 53 53 47 45 48 45 25 12 10 8 6 5 6 6 6 5 6 6 6 7 10 12 12 12 13 15 15 16 20 18
44 54 58 51 44 36 40 61 57 48 42 47 51 50 46 42 42 44 22 11 9 8 5 5 6 6 6 5 5 6 6 9 12 13 13 13 13 12 14 15 15 21 22
62 57 49 40 39 53 65 62 52 46 47 50 49 47 41 45 41 19 11 10 7 5 5 7 6 6 5 6 6 7 10 12 13 14 13 11 11 13 15 15 16 20 27
51 43 40 46 66 72 60 48 52 57 56 54 50 43 51 43 19 11 9 7 5 5 7 7 6 5 6 6 8 14 15 15 15 14 10 10 10 10 12 14 13 16 25
44 55 61 73 71 54 53 58 54 49 48 47 43 50 37 17 11 9 7 5 6 7 7 6 5 6 6 8 14 16 18 15 12 8 7 7 9 11 13 15 17 16 22
67 79 76 62 56 59 56 49 48 48 45 42 47 32 15 11 10 7 5 5 7 7 6 5 6 6 9 13 16 16 13 10 9 8 8 8 8 10 12 12 17 15 17
82 72 68 64 62 54 50 52 49 43 40 46 28 13 9 9 6 5 6 8 7 6 5 7 6 9 12 14 14 11 10 8 7 8 8 8 8 8 9 10 10 10 12
76 74 68 60 54 53 53 47 41 39 40 24 13 10 7 6 5 6 8 7 6 5 7 6 9 14 15 13 11 10 8 8 9 8 8 7 7 7 7 7 7 8 10
79 68 61 57 55 52 46 41 41 35 21 12 10 8 6 5 6 8 7 6 6 8 7 9 16 18 14 11 10 9 9 10 9 9 8 7 6 6 7 7 7 8 9
68 67 60 58 53 46 41 41 31 21 12 9 7 5 5 6 8 7 6 6 8 7 9 16 19 15 12 11 10 9 10 11 11 9 7 6 6 6 6 7 7 8 9
72 65 58 53 47 42 37 31 22 13 8 7 5 4 6 8 7 6 6 9 8 9 16 22 16 13 12 12 10 10 11 11 10 8 7 6 6 6 6 6 6 8 11
65 59 54 48 42 32 27 23 13 8 6 5 5 6 8 7 6 6 9 8 10 17 21 20 13 13 12 13 12 13 14 12 10 7 6 6 6 5 5 5 6 7 9
Wind_Speed
49 48 49 51 53 53 55 56 58 60 63 66 70 73 77 79 82 86 89 93 96 101 105 109 114 118 123 114 115 109 106 109 109 105 114 119 123 125 127 121 114 108 106
49 49 51 52 54 55 57 58 60 63 67 70 73 78 81 84 88 92 95 98 101 106 110 115 120 120 114 112 105 106 110 116 121 121 121 125 131 129 120 111 106 101 97
49 50 51 52 53 55 58 61 63 66 70 74 78 82 85 89 93 95 97 101 107 111 115 120 115 112 105 103 107 113 119 123 128 130 129 130 122 116 106 100 94 92 89
49 49 52 53 55 57 60 64 67 70 73 78 82 86 89 92 94 97 102 107 111 116 120 111 110 104 103 109 115 121 126 129 131 131 126 118 110 103 96 90 88 85 80
48 50 53 54 57 60 63 67 71 74 78 83 87 89 92 94 97 102 106 111 115 115 110 105 100 103 110 117 122 126 131 132 127 120 112 106 98 92 89 85 81 78 74
50 52 54 56 60 63 67 70 74 78 83 87 90 92 93 97 101 106 110 114 109 109 100 97 103 111 117 123 129 133 136 127 115 106 100 94 91 85 83 77 74 68 70
51 53 56 60 63 67 71 74 78 82 86 89 90 93 98 101 106 110 110 105 103 95 98 104 110 118 124 129 132 132 125 114 106 97 92 87 85 79 76 71 67 61 56
52 55 58 62 66 70 74 78 82 85 88 89 93 97 102 106 109 103 103 94 91 98 105 113 118 124 130 132 126 118 111 103 97 91 86 81 75 70 67 64 61 57 50
56 57 59 62 67 71 76 79 83 85 89 93 97 102 105 104 101 95 88 91 97 104 113 120 126 129 129 121 111 105 99 95 88 83 78 72 67 62 59 58 55 52 49
55 59 62 66 70 74 77 81 85 89 93 98 102 102 96 97 87 86 91 97 104 110 118 125 130 129 118 110 102 96 92 87 83 77 70 64 59 55 51 49 49 50 44
57 61 66 70 74 77 82 86 89 94 98 99 95 95 89 82 85 91 97 105 112 117 124 128 127 115 108 102 96 91 84 80 75 69 63 59 53 50 47 45 43 44 43
61 66 69 73 77 80 85 89 93 95 94 90 90 83 82 86 91 96 106 113 119 124 128 125 113 106 100 96 90 83 79 73 67 62 57 52 50 48 43 41 41 39 38
64 68 72 76 81 86 89 91 90 87 88 83 77 80 86 92 99 106 114 119 125 129 126 115 104 98 93 86 81 77 71 66 60 55 51 50 47 45 43 38 36 37 34
68 72 77 81 85 86 85 84 86 82 76 75 78 84 90 98 105 112 118 124 127 123 112 102 95 90 82 78 76 70 64 59 54 51 48 46 45 43 41 37 32 33 31
74 78 80 80 79 79 82 82 76 73 74 78 84 90 96 103 110 115 122 124 117 106 98 93 87 79 75 71 66 61 57 52 50 47 47 44 42 39 35 33 30 27 31
75 73 73 74 78 79 77 72 70 74 78 83 89 96 102 109 114 122 123 115 103 95 91 85 78 74 71 65 58 52 49 48 46 45 43 42 39 35 33 31 29 25 26
66 70 74 76 76 71 68 69 75 81 85 90 97 103 109 116 122 120 113 103 94 89 82 76 72 69 63 57 51 48 47 46 45 43 42 41 38 36 35 33 29 24 22
71 73 73 70 66 65 68 73 78 83 90 98 105 109 116 122 118 110 100 94 88 80 74 72 68 62 56 50 46 45 44 45 42 42 43 42 39 37 32 29 26 18 16
68 65 61 61 63 68 72 78 84 89 95 102 106 115 119 113 108 97 90 86 81 74 70 66 61 55 48 44 43 41 43 45 46 45 42 37 33 27 23 20 19 14 11
58 56 59 63 67 72 78 84 90 95 101 106 113 114 106 101 96 91 84 77 71 69 65 59 53 47 44 41 39 40 42 43 43 42 38 33 26 21 18 16 16 13 11
55 59 64 68 74 79 84 90 96 100 106 113 110 103 96 88 86 81 75 69 66 62 57 52 46 42 40 36 37 39 41 41 39 37 32 27 24 22 17 14 15 12 10
61 65 70 75 80 85 92 96 101 107 110 103 98 94 87 82 77 71 67 64 60 55 49 43 41 40 38 38 39 41 40 38 37 36 32 29 26 20 14 11 10 6 7
66 71 76 81 86 92 97 103 108 106 97 93 89 85 80 74 68 64 61 57 53 47 43 39 37 36 37 39 41 40 37 36 34 34 32 28 25 20 11 8 6 4 4
72 77 82 88 93 98 103 108 101 92 89 86 83 77 71 65 60 58 53 49 45 40 37 36 35 36 38 41 42 38 35 33 32 32 30 27 24 19 13 5 4 1 3
80 85 90 94 98 104 107 98 89 87 84 80 75 69 62 57 55 50 45 41 37 34 34 33 33 35 39 41 39 38 36 33 33 29 27 25 23 17 10 5 2 3 9
87 92 95 100 105 105 93 85 84 82 78 73 67 59 55 52 48 42 38 35 32 32 31 31 34 37 40 40 38 37 35 31 28 28 27 23 19 16 12 6 3 5 11
Wind_Direction
238 243 247 251 256 259 264 267 272 277 281 284 287 289 291 292 294 295 296 296 298 300 301 301 302 303 304 303 303 302 300 299 299 299 300 301 300 297 295 293 291 289 286
240 244 249 254 257 261 266 272 275 278 282 286 289 291 292 293 294 296 297 298 299 301 302 303 304 305 304 303 302 300 301 302 302 304 304 303 301 299 299 297 295 292 290
241 247 252 257 260 265 269 274 277 280 284 288 290 292 294 295 295 296 298 299 301 302 303 305 305 304 303 302 302 302 303 304 305 307 307 303 302 300 299 298 296 293 291
243 250 256 260 264 268 271 275 278 282 286 288 291 294 295 296 297 299 300 301 302 304 305 304 304 303 304 304 304 304 304 305 308 307 305 305 303 302 301 300 299 296 294
249 255 259 263 267 270 274 277 281 284 287 290 292 295 297 298 300 300 301 302 304 304 303 303 304 305 305 306 305 305 307 309 307 306 305 304 304 304 303 302 300 298 296
253 258 262 266 269 272 275 279 283 286 289 292 295 297 299 299 299 301 303 304 303 303 303 304 307 307 307 305 306 309 310 307 308 307 307 307 306 305 304 302 300 300 298
257 262 265 269 272 274 277 280 284 287 291 293 296 298 298 300 302 303 304 302 303 304 306 307 308 308 306 306 310 311 308 309 310 309 309 308 307 306 304 303 301 300 298
261 265 268 272 274 276 279 282 286 290 293 295 297 298 300 303 303 302 302 303 306 308 309 309 308 306 306 311 312 309 309 311 310 310 310 308 308 306 305 303 304 303 301
262 267 272 276 278 280 284 287 290 293 295 296 299 301 303 302 302 303 304 308 309 310 310 309 306 307 311 312 310 310 311 311 311 311 310 309 308 307 306 306 305 304 304
267 272 277 280 283 285 288 290 294 294 296 299 301 302 301 302 302 305 307 310 311 309 308 307 309 313 314 312 312 312 314 312 311 311 311 310 309 308 307 306 305 305 306
274 278 281 283 286 288 291 292 294 297 299 301 302 301 301 303 305 307 310 311 310 310 308 310 314 314 313 314 314 315 313 312 312 312 312 310 310 309 309 306 306 307 309
278 281 284 286 288 290 292 295 297 298 300 301 301 302 304 305 308 311 311 312 312 310 311 314 315 315 314 315 314 314 313 313 313 313 312 312 313 311 311 310 308 306 305
281 283 286 288 291 293 295 296 298 300 300 300 301 304 306 309 311 312 313 312 311 312 315 316 315 315 314 314 314 314 314 314 313 314 314 314 314 313 311 309 305 305 308
284 287 289 290 292 294 296 298 300 300 300 302 304 306 309 311 313 313 312 310 312 314 315 314 315 315 315 315 315 315 315 315 315 315 316 314 313 312 311 311 309 305 307
285 287 289 291 294 296 299 300 300 300 302 304 307 309 311 312 312 312 310 312 315 316 314 315 316 316 316 316 316 316 316 316 316 316 316 316 315 315 313 315 319 314 308
287 288 291 294 297 299 300 299 300 302 304 307 310 311 312 312 313 312 313 316 317 316 316 317 317 318 317 318 318 317 316 316 317 317 318 318 319 320 323 320 321 322 309
289 292 295 298 300 298 298 301 303 305 308 311 312 313 314 314 313 314 316 317 317 317 318 318 318 319 320 319 319 320 319 319 319 320 321 321 318 315 315 315 313 318 310
292 296 297 297 297 299 301 303 306 308 310 313 314 316 315 313 314 316 317 317 318 319 319 320 320 321 321 322 324 322 318 319 320 319 318 316 315 314 312 308 304 306 303
297 296 296 298 300 302 304 306 308 310 311 313 315 315 313 314 316 317 318 319 319 320 320 320 322 322 324 326 325 322 320 319 320 321 322 320 319 316 317 313 300 293 287
296 299 300 301 303 305 307 309 310 311 314 316 315 313 313 316 317 318 320 320 320 320 321 323 324 325 328 327 325 324 320 319 320 322 325 326 324 319 315 307 295 289 275
298 301 303 304 306 307 309 311 312 314 316 316 312 313 316 317 318 319 320 319 320 320 323 324 326 329 329 329 326 325 324 326 326 326 330 332 330 323 316 298 292 290 268
302 303 305 306 308 310 311 312 314 317 317 313 313 316 318 320 320 320 320 319 320 322 324 326 331 332 331 332 331 331 333 332 333 334 337 338 337 331 321 306 306 293 248
304 306 308 309 311 311 312 315 318 318 314 313 316 318 320 321 321 320 320 320 322 325 327 332 334 332 333 334 337 339 338 338 338 336 336 340 340 338 335 319 331 315 223
307 310 310 312 312 313 316 318 319 314 314 316 319 321 322 321 321 320 320 322 325 327 331 336 335 335 336 341 342 342 343 342 341 339 339 342 343 343 340 339 349 15 157
311 311 311 313 314 316 319 320 316 315 317 321 321 323 322 321 321 321 323 325 328 332 337 336 336 340 342 344 345 348 348 347 347 347 347 345 345 349 345 1 40 127 143
311 311 313 314 316 318 320 317 316 318 322 323 323 322 322 322 322 323 325 328 333 336 340 336 340 345 345 347 350 351 351 352 354 360 358 350 344 349 3 31 77 126 148